Time,TemperatureF,DewpointF,PressureIn,WindDirection,WindDirectionDegrees,WindSpeedMPH,WindSpeedGustMPH,Humidity,HourlyPrecipIn,Conditions,Clouds,dailyrainin,SoftwareType,DateUTC
2013-01-11 00:02:00,35.0,30.0,30.21,WNW,287,1.0,4.0,83,0.00,,,0.00,,2013-01-11 08:02:00,
2013-01-11 00:12:00,36.0,31.0,30.21,WSW,247,1.0,4.0,82,0.00,,,0.00,,2013-01-11 08:12:00,
2013-01-11 00:22:00,36.0,31.0,30.21,WSW,247,1.0,4.0,82,0.00,,,0.00,,2013-01-11 08:22:00,
2013-01-11 00:32:00,36.0,31.0,30.20,West,263,1.0,3.0,82,0.00,,,0.00,,2013-01-11 08:32:00,
2013-01-11 00:42:00,36.0,31.0,30.20,West,263,1.0,3.0,82,0.00,,,0.00,,2013-01-11 08:42:00,
2013-01-11 00:52:00,36.0,31.0,30.20,WSW,247,1.0,3.0,82,0.00,,,0.00,,2013-01-11 08:52:00,
2013-01-11 01:02:00,36.0,31.0,30.20,West,269,1.0,2.0,81,0.00,,,0.00,,2013-01-11 09:02:00,
2013-01-11 01:11:00,36.0,31.0,30.20,West,269,1.0,2.0,81,0.00,,,0.00,,2013-01-11 09:11:00,
2013-01-11 01:22:00,37.0,31.0,30.20,North,5,1.0,3.0,80,0.00,,,0.00,,2013-01-11 09:22:00,
2013-01-11 01:32:00,37.0,31.0,30.20,NW,311,1.0,4.0,80,0.00,,,0.00,,2013-01-11 09:32:00,
2013-01-11 01:42:00,37.0,31.0,30.20,NW,311,1.0,4.0,80,0.00,,,0.00,,2013-01-11 09:42:00,
2013-01-11 01:52:00,36.0,31.0,30.20,WNW,288,1.0,3.0,81,0.00,,,0.00,,2013-01-11 09:52:00,
2013-01-11 02:02:00,36.0,31.0,30.20,WNW,284,2.0,3.0,81,0.00,,,0.00,,2013-01-11 10:02:00,
2013-01-11 02:11:00,36.0,31.0,30.20,WNW,284,2.0,3.0,81,0.00,,,0.00,,2013-01-11 10:11:00,
2013-01-11 02:22:00,35.0,30.0,30.20,WNW,294,2.0,4.0,83,0.00,,,0.00,,2013-01-11 10:22:00,
2013-01-11 02:32:00,35.0,30.0,30.20,WNW,294,2.0,4.0,83,0.00,,,0.00,,2013-01-11 10:32:00,
2013-01-11 02:42:00,35.0,30.0,30.20,WNW,294,2.0,4.0,83,0.00,,,0.00,,2013-01-11 10:42:00,
2013-01-11 02:52:00,35.0,31.0,30.20,West,278,1.0,4.0,84,0.00,,,0.00,,2013-01-11 10:52:00,
2013-01-11 03:02:00,35.0,31.0,30.20,NW,306,1.0,5.0,84,0.00,,,0.00,,2013-01-11 11:02:00,
2013-01-11 03:12:00,35.0,31.0,30.20,NW,306,1.0,5.0,84,0.00,,,0.00,,2013-01-11 11:12:00,
2013-01-11 03:22:00,34.0,30.0,30.20,West,279,1.0,2.0,85,0.00,,,0.00,,2013-01-11 11:22:00,
2013-01-11 03:32:00,34.0,30.0,30.20,WNW,300,1.0,3.0,85,0.00,,,0.00,,2013-01-11 11:32:00,
2013-01-11 03:42:00,34.0,30.0,30.20,WNW,300,1.0,3.0,85,0.00,,,0.00,,2013-01-11 11:42:00,
2013-01-11 03:52:00,34.0,30.0,30.20,WNW,300,1.0,2.0,85,0.00,,,0.00,,2013-01-11 11:52:00,
2013-01-11 04:02:00,34.0,30.0,30.19,SE,127,1.0,3.0,84,0.00,,,0.00,,2013-01-11 12:02:00,
2013-01-11 04:12:00,34.0,30.0,30.19,SE,127,1.0,3.0,84,0.00,,,0.00,,2013-01-11 12:12:00,
2013-01-11 04:22:00,34.0,30.0,30.20,ESE,123,1.0,3.0,84,0.00,,,0.00,,2013-01-11 12:22:00,
2013-01-11 04:32:00,33.0,29.0,30.20,East,89,0.0,2.0,86,0.00,,,0.00,,2013-01-11 12:32:00,
2013-01-11 04:42:00,33.0,29.0,30.20,East,89,0.0,2.0,86,0.00,,,0.00,,2013-01-11 12:42:00,
2013-01-11 04:52:00,33.0,30.0,30.20,WSW,242,1.0,2.0,87,0.00,,,0.00,,2013-01-11 12:52:00,
2013-01-11 05:02:00,34.0,30.0,30.20,WNW,288,1.0,3.0,85,0.00,,,0.00,,2013-01-11 13:02:00,
2013-01-11 05:12:00,34.0,30.0,30.20,WNW,288,1.0,3.0,85,0.00,,,0.00,,2013-01-11 13:12:00,
2013-01-11 05:22:00,34.0,30.0,30.21,WNW,288,2.0,3.0,85,0.00,,,0.00,,2013-01-11 13:22:00,
2013-01-11 05:32:00,34.0,30.0,30.21,WSW,254,1.0,3.0,84,0.00,,,0.00,,2013-01-11 13:32:00,
2013-01-11 05:42:00,34.0,30.0,30.21,WSW,254,1.0,3.0,84,0.00,,,0.00,,2013-01-11 13:42:00,
2013-01-11 05:52:00,34.0,30.0,30.22,WSW,239,1.0,6.0,84,0.00,,,0.00,,2013-01-11 13:52:00,
2013-01-11 06:03:00,34.0,30.0,30.22,West,271,1.0,2.0,85,0.00,,,0.00,,2013-01-11 14:03:00,
2013-01-11 06:12:00,34.0,30.0,30.22,West,271,1.0,2.0,85,0.00,,,0.00,,2013-01-11 14:12:00,
2013-01-11 06:22:00,34.0,30.0,30.22,WNW,288,1.0,3.0,85,0.00,,,0.00,,2013-01-11 14:22:00,
2013-01-11 06:33:00,35.0,30.0,30.22,NE,42,3.0,7.0,83,0.00,,,0.00,,2013-01-11 14:33:00,
2013-01-11 06:42:00,35.0,30.0,30.22,NE,42,3.0,7.0,83,0.00,,,0.00,,2013-01-11 14:42:00,
2013-01-11 06:53:00,35.0,30.0,30.22,WSW,248,1.0,5.0,82,0.00,,,0.00,,2013-01-11 14:53:00,
2013-01-11 07:03:00,35.0,30.0,30.23,SW,226,1.0,4.0,82,0.00,,,0.00,,2013-01-11 15:03:00,
2013-01-11 07:12:00,35.0,30.0,30.23,WSW,242,1.0,3.0,81,0.00,,,0.00,,2013-01-11 15:12:00,
2013-01-11 07:22:00,35.0,30.0,30.23,WSW,242,1.0,3.0,81,0.00,,,0.00,,2013-01-11 15:22:00,
2013-01-11 07:32:00,35.0,30.0,30.24,West,266,1.0,3.0,83,0.00,,,0.00,,2013-01-11 15:32:00,
2013-01-11 07:42:00,35.0,30.0,30.24,West,266,1.0,3.0,83,0.00,,,0.00,,2013-01-11 15:42:00,
2013-01-11 07:52:00,35.0,30.0,30.24,SW,236,1.0,3.0,82,0.00,,,0.00,,2013-01-11 15:52:00,
2013-01-11 08:02:00,35.0,30.0,30.25,WSW,256,1.0,3.0,83,0.00,,,0.00,,2013-01-11 16:02:00,
2013-01-11 08:12:00,35.0,30.0,30.25,WSW,256,1.0,3.0,83,0.00,,,0.00,,2013-01-11 16:12:00,
2013-01-11 08:22:00,36.0,31.0,30.24,SW,228,1.0,2.0,83,0.00,,,0.00,,2013-01-11 16:22:00,
2013-01-11 08:32:00,35.0,30.0,30.25,West,272,0.0,1.0,83,0.00,,,0.00,,2013-01-11 16:32:00,
2013-01-11 08:42:00,35.0,30.0,30.25,West,272,0.0,1.0,83,0.00,,,0.00,,2013-01-11 16:42:00,
2013-01-11 08:52:00,35.0,31.0,30.25,West,272,0.0,1.0,84,0.00,,,0.00,,2013-01-11 16:52:00,
2013-01-11 09:03:00,35.0,31.0,30.25,WSW,241,1.0,2.0,85,0.00,,,0.00,,2013-01-11 17:03:00,
2013-01-11 09:12:00,35.0,31.0,30.25,WSW,241,1.0,2.0,85,0.00,,,0.00,,2013-01-11 17:12:00,
2013-01-11 09:22:00,35.0,31.0,30.25,SW,226,0.0,1.0,84,0.00,,,0.00,,2013-01-11 17:22:00,
2013-01-11 09:33:00,35.0,31.0,30.25,SW,226,0.0,1.0,84,0.00,,,0.00,,2013-01-11 17:33:00,
2013-01-11 09:42:00,35.0,31.0,30.25,SW,226,0.0,1.0,84,0.00,,,0.00,,2013-01-11 17:42:00,
2013-01-11 09:52:00,37.0,31.0,30.25,WSW,256,1.0,3.0,80,0.00,,,0.00,,2013-01-11 17:52:00,
2013-01-11 10:03:00,38.0,32.0,30.25,WNW,290,1.0,3.0,79,0.00,,,0.00,,2013-01-11 18:03:00,
2013-01-11 10:12:00,38.0,32.0,30.25,WNW,290,1.0,3.0,79,0.00,,,0.00,,2013-01-11 18:12:00,
2013-01-11 10:23:00,38.0,31.0,30.25,WNW,285,1.0,3.0,77,0.00,,,0.00,,2013-01-11 18:23:00,
2013-01-11 10:32:00,38.0,31.0,30.25,WNW,285,1.0,3.0,77,0.00,,,0.00,,2013-01-11 18:32:00,
2013-01-11 10:42:00,38.0,31.0,30.25,WNW,285,1.0,3.0,77,0.00,,,0.00,,2013-01-11 18:42:00,
2013-01-11 10:53:00,39.0,33.0,30.25,SW,232,1.0,3.0,78,0.00,,,0.00,,2013-01-11 18:53:00,
2013-01-11 11:02:00,40.0,33.0,30.24,WSW,251,1.0,3.0,76,0.00,,,0.00,,2013-01-11 19:02:00,
2013-01-11 11:12:00,40.0,33.0,30.24,WSW,251,1.0,3.0,76,0.00,,,0.00,,2013-01-11 19:12:00,
2013-01-11 11:22:00,40.0,32.0,30.24,West,278,3.0,4.0,74,0.00,,,0.00,,2013-01-11 19:22:00,
2013-01-11 11:32:00,42.0,33.0,30.22,WNW,298,2.0,3.0,70,0.00,,,0.00,,2013-01-11 19:32:00,
2013-01-11 11:42:00,42.0,33.0,30.22,WNW,298,2.0,3.0,70,0.00,,,0.00,,2013-01-11 19:42:00,
2013-01-11 11:52:00,43.0,34.0,30.22,WNW,287,1.0,6.0,69,0.00,,,0.00,,2013-01-11 19:52:00,
2013-01-11 12:02:00,43.0,33.0,30.21,WNW,285,2.0,6.0,68,0.00,,,0.00,,2013-01-11 20:02:00,
2013-01-11 12:12:00,43.0,33.0,30.21,WNW,285,2.0,6.0,68,0.00,,,0.00,,2013-01-11 20:12:00,
2013-01-11 12:22:00,43.0,33.0,30.20,WNW,292,2.0,4.0,68,0.00,,,0.00,,2013-01-11 20:22:00,
2013-01-11 12:32:00,44.0,34.0,30.20,West,281,2.0,4.0,69,0.00,,,0.00,,2013-01-11 20:32:00,
2013-01-11 12:43:00,44.0,34.0,30.20,West,281,2.0,4.0,69,0.00,,,0.00,,2013-01-11 20:43:00,
2013-01-11 12:52:00,45.0,35.0,30.19,NNW,327,2.0,6.0,69,0.00,,,0.00,,2013-01-11 20:52:00,
2013-01-11 13:03:00,47.0,36.0,30.18,SW,226,2.0,5.0,65,0.00,,,0.00,,2013-01-11 21:03:00,
2013-01-11 13:12:00,47.0,36.0,30.18,SW,226,2.0,5.0,65,0.00,,,0.00,,2013-01-11 21:12:00,
2013-01-11 13:22:00,47.0,35.0,30.17,West,275,3.0,7.0,63,0.00,,,0.00,,2013-01-11 21:22:00,
2013-01-11 13:32:00,49.0,36.0,30.16,West,277,2.0,7.0,61,0.00,,,0.00,,2013-01-11 21:32:00,
2013-01-11 13:42:00,49.0,36.0,30.16,West,277,2.0,7.0,61,0.00,,,0.00,,2013-01-11 21:42:00,
2013-01-11 13:52:00,50.0,37.0,30.16,SW,218,2.0,5.0,61,0.00,,,0.00,,2013-01-11 21:52:00,
2013-01-11 14:02:00,51.0,36.0,30.15,NW,305,2.0,5.0,57,0.00,,,0.00,,2013-01-11 22:02:00,
2013-01-11 14:12:00,51.0,36.0,30.15,NW,305,2.0,5.0,57,0.00,,,0.00,,2013-01-11 22:12:00,
2013-01-11 14:22:00,51.0,36.0,30.15,NNE,30,2.0,6.0,56,0.00,,,0.00,,2013-01-11 22:22:00,
2013-01-11 14:33:00,51.0,35.0,30.15,West,261,3.0,6.0,54,0.00,,,0.00,,2013-01-11 22:33:00,
2013-01-11 14:42:00,51.0,35.0,30.15,West,261,3.0,6.0,54,0.00,,,0.00,,2013-01-11 22:42:00,
2013-01-11 14:52:00,51.0,35.0,30.15,WNW,299,2.0,3.0,55,0.00,,,0.00,,2013-01-11 22:52:00,
2013-01-11 15:02:00,52.0,36.0,30.15,WSW,252,2.0,6.0,55,0.00,,,0.00,,2013-01-11 23:02:00,
2013-01-11 15:12:00,52.0,36.0,30.15,WSW,252,2.0,6.0,55,0.00,,,0.00,,2013-01-11 23:12:00,
2013-01-11 15:22:00,52.0,37.0,30.15,WSW,254,2.0,5.0,56,0.00,,,0.00,,2013-01-11 23:22:00,
2013-01-11 15:32:00,52.0,37.0,30.14,NNW,331,2.0,5.0,56,0.00,,,0.00,,2013-01-11 23:32:00,
2013-01-11 15:42:00,52.0,37.0,30.14,NNW,331,2.0,5.0,56,0.00,,,0.00,,2013-01-11 23:42:00,
2013-01-11 15:53:00,51.0,36.0,30.14,NW,310,2.0,6.0,57,0.00,,,0.00,,2013-01-11 23:53:00,
2013-01-11 16:02:00,50.0,36.0,30.14,WNW,302,1.0,7.0,59,0.00,,,0.00,,2013-01-12 00:02:00,
2013-01-11 16:12:00,50.0,36.0,30.14,WNW,302,1.0,7.0,59,0.00,,,0.00,,2013-01-12 00:12:00,
2013-01-11 16:22:00,49.0,36.0,30.14,West,280,2.0,4.0,61,0.00,,,0.00,,2013-01-12 00:22:00,
2013-01-11 16:32:00,48.0,36.0,30.14,East,80,2.0,5.0,63,0.00,,,0.00,,2013-01-12 00:32:00,
2013-01-11 16:42:00,48.0,36.0,30.14,East,80,2.0,5.0,63,0.00,,,0.00,,2013-01-12 00:42:00,
2013-01-11 16:52:00,47.0,35.0,30.14,SSW,207,1.0,5.0,64,0.00,,,0.00,,2013-01-12 00:52:00,
2013-01-11 17:02:00,47.0,37.0,30.14,NW,309,1.0,3.0,67,0.00,,,0.00,,2013-01-12 01:02:00,
2013-01-11 17:12:00,47.0,37.0,30.14,NW,309,1.0,3.0,67,0.00,,,0.00,,2013-01-12 01:12:00,
2013-01-11 17:22:00,45.0,35.0,30.13,NNE,29,1.0,5.0,69,0.00,,,0.00,,2013-01-12 01:22:00,
2013-01-11 17:32:00,44.0,35.0,30.14,SW,234,1.0,3.0,71,0.00,,,0.00,,2013-01-12 01:32:00,
2013-01-11 17:42:00,44.0,35.0,30.14,SW,234,1.0,3.0,71,0.00,,,0.00,,2013-01-12 01:42:00,
2013-01-11 17:52:00,43.0,35.0,30.14,NNW,330,0.0,2.0,73,0.00,,,0.00,,2013-01-12 01:52:00,
2013-01-11 18:02:00,43.0,35.0,30.14,NNW,330,0.0,2.0,73,0.00,,,0.00,,2013-01-12 02:02:00,
2013-01-11 18:12:00,43.0,35.0,30.14,NNW,330,0.0,2.0,73,0.00,,,0.00,,2013-01-12 02:12:00,
2013-01-11 18:22:00,42.0,35.0,30.14,West,279,0.0,3.0,77,0.00,,,0.00,,2013-01-12 02:22:00,
2013-01-11 18:32:00,41.0,35.0,30.14,West,281,0.0,2.0,79,0.00,,,0.00,,2013-01-12 02:32:00,
2013-01-11 18:42:00,41.0,35.0,30.14,West,281,0.0,2.0,79,0.00,,,0.00,,2013-01-12 02:42:00,
2013-01-11 18:52:00,40.0,35.0,30.14,West,261,0.0,1.0,82,0.00,,,0.00,,2013-01-12 02:52:00,
2013-01-11 19:02:00,39.0,35.0,30.15,West,262,1.0,2.0,84,0.00,,,0.00,,2013-01-12 03:02:00,
2013-01-11 19:11:00,39.0,35.0,30.15,West,262,1.0,2.0,84,0.00,,,0.00,,2013-01-12 03:11:00,
2013-01-11 19:22:00,39.0,35.0,30.15,West,262,0.0,1.0,84,0.00,,,0.00,,2013-01-12 03:22:00,
2013-01-11 19:32:00,38.0,34.0,30.15,West,262,0.0,2.0,86,0.00,,,0.00,,2013-01-12 03:32:00,
2013-01-11 19:42:00,38.0,34.0,30.15,West,262,0.0,2.0,86,0.00,,,0.00,,2013-01-12 03:42:00,
2013-01-11 19:52:00,38.0,34.0,30.15,NNE,26,0.0,1.0,86,0.00,,,0.00,,2013-01-12 03:52:00,
2013-01-11 20:02:00,38.0,34.0,30.15,NNE,26,0.0,1.0,87,0.00,,,0.00,,2013-01-12 04:02:00,
2013-01-11 20:12:00,38.0,34.0,30.15,NNE,26,0.0,1.0,87,0.00,,,0.00,,2013-01-12 04:12:00,
2013-01-11 20:22:00,38.0,34.0,30.16,NE,53,0.0,2.0,87,0.00,,,0.00,,2013-01-12 04:22:00,
2013-01-11 20:32:00,37.0,34.0,30.16,NE,53,0.0,2.0,87,0.00,,,0.00,,2013-01-12 04:32:00,
2013-01-11 20:42:00,37.0,34.0,30.16,NE,53,0.0,2.0,87,0.00,,,0.00,,2013-01-12 04:42:00,
2013-01-11 20:52:00,37.0,34.0,30.16,SW,235,0.0,1.0,88,0.00,,,0.00,,2013-01-12 04:52:00,
2013-01-11 21:03:00,37.0,34.0,30.17,SW,235,0.0,1.0,88,0.00,,,0.00,,2013-01-12 05:03:00,
2013-01-11 21:12:00,37.0,34.0,30.17,SW,235,0.0,1.0,88,0.00,,,0.00,,2013-01-12 05:12:00,
2013-01-11 21:22:00,36.0,33.0,30.17,SW,235,0.0,2.0,89,0.00,,,0.00,,2013-01-12 05:22:00,
2013-01-11 21:32:00,36.0,33.0,30.18,SW,235,1.0,2.0,89,0.00,,,0.00,,2013-01-12 05:32:00,
2013-01-11 21:42:00,36.0,33.0,30.18,SW,235,1.0,2.0,89,0.00,,,0.00,,2013-01-12 05:42:00,
2013-01-11 21:52:00,36.0,33.0,30.19,East,96,0.0,2.0,90,0.00,,,0.00,,2013-01-12 05:52:00,
2013-01-11 22:02:00,36.0,34.0,30.19,East,86,0.0,2.0,91,0.00,,,0.00,,2013-01-12 06:02:00,
2013-01-11 22:12:00,36.0,34.0,30.19,East,86,0.0,2.0,91,0.00,,,0.00,,2013-01-12 06:12:00,
2013-01-11 22:22:00,36.0,33.0,30.19,East,86,0.0,1.0,89,0.00,,,0.00,,2013-01-12 06:22:00,
2013-01-11 22:32:00,36.0,33.0,30.19,East,86,1.0,1.0,88,0.00,,,0.00,,2013-01-12 06:32:00,
2013-01-11 22:42:00,36.0,33.0,30.19,East,86,1.0,1.0,88,0.00,,,0.00,,2013-01-12 06:42:00,
2013-01-11 22:52:00,37.0,33.0,30.19,ENE,61,1.0,3.0,85,0.00,,,0.00,,2013-01-12 06:52:00,
2013-01-11 23:02:00,39.0,34.0,30.19,East,88,1.0,6.0,81,0.00,,,0.00,,2013-01-12 07:02:00,
2013-01-11 23:11:00,39.0,34.0,30.19,East,88,1.0,6.0,81,0.00,,,0.00,,2013-01-12 07:11:00,
2013-01-11 23:22:00,38.0,32.0,30.19,NE,51,0.0,2.0,79,0.00,,,0.00,,2013-01-12 07:22:00,
2013-01-11 23:32:00,38.0,32.0,30.20,NE,49,0.0,1.0,80,0.00,,,0.00,,2013-01-12 07:32:00,
2013-01-11 23:42:00,38.0,32.0,30.20,NE,49,0.0,1.0,80,0.00,,,0.00,,2013-01-12 07:42:00,
2013-01-11 23:52:00,37.0,32.0,30.20,NE,49,1.0,2.0,81,0.00,,,0.00,,2013-01-12 07:52:00,